USA 40 R/B DEB, 23351

Orbit data source: Space-Track

USA 40 R/B DEB, 23351 is space debris in LEO originally from a launch on Tue, 08 Aug 1989 UTC launched from the Air Force Eastern Test Range (AFETR). Debris objects in space refer to the collection of defunct objects orbiting the Earth. Examples of debris include non-operational satellites, rocket bodies, and fragments generated from explosions, collisions, or faulty payload assembly.

Loading next visibility...
Identifier
23351, 1989-061X
Orbit
LEO
Country
Flag of USUS
Related business
Manufacturer
Unknown
Mission
Spacecraft
Bus & Motor
Unknown
Mass
Unknown
Launch date (UTC)
1989-08-08 (37 years ago)
Launch vehicle
Unknown
Launch site
Air Force Eastern Test Range (AFETR)
Object type
Payload
Rocket body
Debris
Shape & HBR
Unknown shape, 0.1 m
Radar Cross Section
Small (<0.1 m²)

Expand to show TLE details & history
Last TLE update: 1 day ago

TLE from 1 day ago
0 USA 40 R/B DEB
1 23351U 89061X   26093.43536111  .00017622  00000-0  91310-2 0  9996
2 23351  56.9467 119.1396 2181290 172.1333 192.0591 10.50107437259647
Epoch: 2026-04-03T10:26Z
TLE epoch observation values (Epoch: 2026-04-03T10:26:55.199Z)
Latitude
-0.00001°
Longitude
130.64007°
Altitude
4,324.513 km
Speed
5.409 km/s
True Right ascension
07h 56m 33s
True Declination
0° 00' 00"
Sunlit
Object was in daylight at epoch
Visualization orbit readout
Latitude
Unknown
Longitude
Unknown
Altitude
Unknown
Speed
Unknown
Apparent Right ascension
Unknown
Apparent Declination
Unknown
Sunlit
N/A
Visualization observer readout
Local Sidereal Time
23:06:52
Azimuth
Unknown
Elevation
Unknown
Doppler factor
Unknown
Orbital elements
Apogee altitude
4,351.672 km
Perigee altitude
508.922 km
Semi-major axis
8,808.434 km
Eccentricity
0.21813
Inclination
56.9467°
RAAN
119.1396°
Arg. of periapsis
172.1333°
True anomaly
187.94543°
Mean anomaly
192.0591°
Eccentric anomaly
189.90852°
Mean motion
2.6254 °/min
Orbital period
137.12 mins
BSTAR
0.009131
Loading maneuver chart data...
Computing Atmospheric mass density...
Loading historical data...
Loading historical data...
Loading historical data...
Loading historical data...
Loading historical data...
Loading historical data...
Loading historical data...

Documentation

Showing up to 5 results
|